Weather History for Fremont, NE

Change the Weather History Date:

Thursday, May 10, 2012

  Actual Average Record
Temperature  
Mean Temperature 68 °F -  
Max Temperature 86 °F 74 °F 95 °F (2011)
Min Temperature 51 °F 48 °F 33 °F (1981)
Cooling Degree Days 4    
Growing Degree Days 18 (Base 50)    
Moisture  
Dew Point 44 °F    
Average Humidity 43    
Maximum Humidity 70    
Minimum Humidity 20    
Precipitation  
Precipitation 0.00 in - - ()
Sea Level Pressure  
Sea Level Pressure 29.82 in    
Wind  
Wind Speed 11 mph (SSE)    
Max Wind Speed 21 mph    
Max Gust Speed 28 mph    
Visibility 10 miles    
Events      
Averages and records for this station are not official NWS values.
T = Trace of Precipitation, MM = Missing Value Source: NWS Daily Summary

Daily Weather History Graph

Daily Weather History Graph

Search for Another Location

Airport:

Trip Planner

Search our weather history database for the weather conditions in past years. The results will help you decide how hot, cold, wet, or windy it might be!

Date:

Astronomy

May. 10, 2012 Rise Set
Actual Time 6:11 AM CDT 8:33 PM CDT
Civil Twilight 5:40 AM CDT 9:05 PM CDT
Nautical Twilight 5:02 AM CDT 9:43 PM CDT
Astronomical Twilight 4:19 AM CDT 10:26 PM CDT
Moon 12:33 AM CDT (5/10) 10:37 AM CDT (5/10)
Length of Visible Light 15h 24m
Length of Day
14h 22m
Waning Gibbous, 73% of the Moon is Illuminated
May 10
Waning Gibbous
May 12
Last Quarter
May 20
New
May 28
First Quarter
Jun 4
Full

Hourly Weather History & Observations

Time (CDT) Temp. Dew Point Humidity Pressure Visibility Wind Dir Wind Speed Gust Speed Precip Events Conditions
12:15 AM 55.8 °F 43.0 °F 62% 29.92 in 10.0 mi ESE 6.9 mph - N/A   Clear
12:35 AM 55.4 °F 43.2 °F 63% 29.92 in 10.0 mi ESE 5.8 mph - N/A   Clear
12:55 AM 55.0 °F 43.3 °F 65% 29.92 in 10.0 mi SE 5.8 mph - N/A   Clear
1:15 AM 54.9 °F 43.2 °F 65% 29.92 in 10.0 mi SE 5.8 mph - N/A   Clear
1:35 AM 54.7 °F 43.0 °F 65% 29.92 in 10.0 mi SE 6.9 mph - N/A   Clear
1:55 AM 55.0 °F 42.4 °F 63% 29.92 in 10.0 mi SE 6.9 mph - N/A   Clear
2:15 AM 55.4 °F 41.9 °F 60% 29.92 in 10.0 mi SE 6.9 mph - N/A   Clear
2:35 AM 54.7 °F 41.9 °F 62% 29.91 in 10.0 mi SE 6.9 mph - N/A   Clear
2:55 AM 54.5 °F 41.4 °F 61% 29.91 in 10.0 mi SE 8.1 mph - N/A   Clear
3:15 AM 54.9 °F 41.0 °F 60% 29.91 in 10.0 mi SE 8.1 mph - N/A   Clear
3:35 AM 54.5 °F 41.2 °F 61% 29.91 in 10.0 mi SE 8.1 mph - N/A   Clear
3:55 AM 54.5 °F 41.2 °F 61% 29.91 in 10.0 mi SE 6.9 mph - N/A   Clear
4:15 AM 54.1 °F 41.4 °F 62% 29.91 in 10.0 mi SE 6.9 mph - N/A   Clear
4:35 AM 53.8 °F 41.4 °F 63% 29.91 in 10.0 mi SE 6.9 mph - N/A   Clear
4:55 AM 53.8 °F 41.5 °F 63% 29.90 in 10.0 mi SE 8.1 mph - N/A   Clear
5:15 AM 52.3 °F 41.9 °F 68% 29.90 in 10.0 mi SE 4.6 mph - N/A   Clear
5:35 AM 52.0 °F 42.3 °F 69% 29.90 in 10.0 mi SE 4.6 mph - N/A   Clear
5:55 AM 51.8 °F 42.4 °F 70% 29.90 in 10.0 mi SE 6.9 mph - N/A   Clear
6:15 AM 52.7 °F 42.8 °F 69% 29.90 in 10.0 mi SE 6.9 mph - N/A   Clear
6:35 AM 53.6 °F 42.6 °F 66% 29.90 in 10.0 mi SE 9.2 mph - N/A   Clear
6:55 AM 54.1 °F 43.0 °F 66% 29.89 in 10.0 mi SE 8.1 mph - N/A   Clear
7:15 AM 55.4 °F 43.2 °F 63% 29.89 in 10.0 mi SE 10.4 mph 16.1 mph N/A   Clear
7:35 AM 56.8 °F 43.5 °F 61% 29.89 in 10.0 mi SE 10.4 mph - N/A   Clear
7:55 AM 58.3 °F 43.7 °F 58% 29.88 in 10.0 mi SE 11.5 mph - N/A   Clear
8:15 AM 59.9 °F 43.9 °F 55% 29.87 in 10.0 mi SE 12.7 mph - N/A   Clear
8:35 AM 61.7 °F 44.6 °F 53% 29.87 in 10.0 mi SE 12.7 mph - N/A   Clear
8:55 AM 63.5 °F 44.8 °F 51% 29.87 in 10.0 mi SE 13.8 mph 18.4 mph N/A   Clear
9:15 AM 65.5 °F 44.8 °F 47% 29.86 in 10.0 mi SE 15.0 mph 19.6 mph N/A   Clear
9:35 AM 66.7 °F 44.6 °F 45% 29.86 in 10.0 mi SSE 15.0 mph 25.3 mph N/A   Clear
9:55 AM 68.0 °F 45.3 °F 44% 29.85 in 10.0 mi SSE 18.4 mph 24.2 mph N/A   Clear
10:15 AM 69.3 °F 45.7 °F 43% 29.85 in 10.0 mi SSE 15.0 mph 23.0 mph N/A   Clear
10:35 AM 70.9 °F 45.9 °F 41% 29.84 in 10.0 mi SSE 18.4 mph 25.3 mph N/A   Clear
10:55 AM 71.6 °F 46.0 °F 40% 29.84 in 10.0 mi SSE 18.4 mph 26.5 mph N/A   Clear
11:15 AM 72.7 °F 46.4 °F 39% 29.83 in 10.0 mi SE 17.3 mph 24.2 mph N/A   Clear
11:35 AM 74.5 °F 46.6 °F 37% 29.82 in 10.0 mi SE 17.3 mph 26.5 mph N/A   Clear
11:55 AM 75.4 °F 46.2 °F 35% 29.82 in 10.0 mi SSE 18.4 mph 25.3 mph N/A   Clear
12:15 PM 75.9 °F 46.2 °F 35% 29.81 in 10.0 mi SSE 17.3 mph - N/A   Clear
12:35 PM 76.5 °F 46.2 °F 34% 29.81 in 10.0 mi SSE 20.7 mph 24.2 mph N/A   Clear
12:55 PM 77.7 °F 46.2 °F 33% 29.80 in 10.0 mi SSE 13.8 mph 21.9 mph N/A   Clear
1:15 PM 79.0 °F 46.4 °F 32% 29.79 in 10.0 mi SSE 17.3 mph 24.2 mph N/A   Clear
1:35 PM 79.7 °F 46.0 °F 30% 29.78 in 10.0 mi SE 19.6 mph 24.2 mph N/A   Clear
1:55 PM 80.6 °F 46.0 °F 30% 29.78 in 10.0 mi SSE 20.7 mph 27.6 mph N/A   Clear
2:15 PM 81.5 °F 45.7 °F 28% 29.77 in 10.0 mi SE 19.6 mph 26.5 mph N/A   Clear
2:35 PM 82.4 °F 45.9 °F 28% 29.77 in 10.0 mi SSE 15.0 mph 24.2 mph N/A   Clear
2:55 PM 83.3 °F 46.6 °F 28% 29.76 in 10.0 mi SSE 13.8 mph 25.3 mph N/A   Clear
3:15 PM 84.6 °F 45.9 °F 26% 29.76 in 10.0 mi SSE 16.1 mph 21.9 mph N/A   Clear
3:35 PM 85.1 °F 43.9 °F 24% 29.75 in 10.0 mi SSE 13.8 mph - N/A   Clear
3:55 PM 85.1 °F 42.4 °F 22% 29.75 in 10.0 mi South 15.0 mph 24.2 mph N/A   Clear
4:15 PM 85.1 °F 43.0 °F 23% 29.74 in 10.0 mi SSE 12.7 mph 26.5 mph N/A   Clear
4:35 PM 85.5 °F 43.2 °F 23% 29.74 in 10.0 mi South 16.1 mph 23.0 mph N/A   Clear
4:55 PM 86.0 °F 42.3 °F 21% 29.74 in 10.0 mi SSE 19.6 mph 24.2 mph N/A   Clear
5:15 PM 85.8 °F 42.6 °F 22% 29.73 in 10.0 mi South 19.6 mph 25.3 mph N/A   Clear
5:35 PM 86.2 °F 40.8 °F 20% 29.73 in 10.0 mi South 16.1 mph 23.0 mph N/A   Clear
6:15 PM 86.0 °F 41.9 °F 21% 29.73 in 10.0 mi South 16.1 mph 24.2 mph N/A   Clear
6:35 PM 85.3 °F 42.6 °F 22% 29.73 in 10.0 mi South 17.3 mph 21.9 mph N/A   Clear
6:55 PM 84.7 °F 41.4 °F 22% 29.73 in 10.0 mi South 16.1 mph 19.6 mph N/A   Clear
7:15 PM 84.2 °F 41.4 °F 22% 29.73 in 10.0 mi South 16.1 mph 21.9 mph N/A   Clear
7:35 PM 83.3 °F 41.9 °F 23% 29.73 in 10.0 mi South 12.7 mph 24.2 mph N/A   Clear
7:55 PM 82.4 °F 42.8 °F 25% 29.73 in 10.0 mi South 12.7 mph 20.7 mph N/A   Clear
8:15 PM 80.6 °F 43.7 °F 27% 29.74 in 10.0 mi SSE 11.5 mph 16.1 mph N/A   Clear
8:35 PM 79.7 °F 44.1 °F 28% 29.74 in 10.0 mi SSE 11.5 mph 17.3 mph N/A   Clear
8:55 PM 78.8 °F 44.1 °F 29% 29.74 in 10.0 mi SSE 10.4 mph - N/A   Clear
9:15 PM 76.6 °F 44.8 °F 32% 29.75 in 10.0 mi SSE 12.7 mph - N/A   Clear
9:35 PM 76.1 °F 45.5 °F 34% 29.76 in 10.0 mi SSE 12.7 mph - N/A   Clear
9:55 PM 75.9 °F 45.5 °F 34% 29.77 in 10.0 mi SSE 17.3 mph - N/A   Clear
10:15 PM 75.2 °F 46.2 °F 36% 29.77 in 10.0 mi SSE 15.0 mph 21.9 mph N/A   Clear
10:35 PM 74.3 °F 46.8 °F 37% 29.78 in 10.0 mi SSE 13.8 mph 21.9 mph N/A   Clear
10:55 PM 73.6 °F 47.1 °F 39% 29.78 in 10.0 mi SSE 15.0 mph 20.7 mph N/A   Clear
11:15 PM 72.9 °F 47.7 °F 41% 29.79 in 10.0 mi South 13.8 mph 21.9 mph N/A   Clear
11:35 PM 72.5 °F 47.8 °F 42% 29.79 in 10.0 mi South 15.0 mph 21.9 mph N/A   Clear
11:55 PM 72.0 °F 47.3 °F 41% 29.80 in 10.0 mi South 13.8 mph 23.0 mph N/A   Clear